Location: Gage
(33.9753°N, 118.1267°W)
Time: 00:33:50
(UTC+00:00)

Tiangong - Visible Passes

Search period start: 08 October 2024 00:00
Search period end: 18 October 2024 00:00
Orbit: 373 x 378 km, 41.5° (Epoch: 07 October)

Date Brightness Start Highest point End Pass type
(mag) Time Alt. Az. Time Alt. Az. Time Alt. Az.
13 Oct 1.1 13:21:43 10° SSE 13:22:32 11° SE 13:23:20 10° SE visible
15 Oct 0.4 12:50:26 10° S 12:52:41 19° SE 12:54:56 10° E visible
16 Oct -2.0 13:22:44 10° SW 13:25:48 70° SSE 13:28:53 10° ENE visible
17 Oct -0.8 12:22:20 31° SSE 12:22:32 31° SE 12:25:20 10° E visible
